Weather History for Meadville, PA

Change the Weather History Date:

Friday, February 17, 2012

  Actual Average Record
Temperature  
Mean Temperature 32 °F -  
Max Temperature 37 °F 34 °F 63 °F (1984)
Min Temperature 28 °F 15 °F -14 °F (1963)
Degree Days  
Heating Degree Days 32    
Moisture  
Dew Point 25 °F    
Average Humidity 75    
Maximum Humidity 93    
Minimum Humidity 52    
Precipitation  
Precipitation 0.00 in - - ()
Sea Level Pressure  
Sea Level Pressure 30.09 in    
Wind  
Wind Speed 7 mph (WSW)    
Max Wind Speed 17 mph    
Max Gust Speed 26 mph    
Visibility 8 miles    
Events      
Averages and records for this station are not official NWS values.
T = Trace of Precipitation, MM = Missing Value Source: NWS Daily Summary

Daily Weather History Graph

Daily Weather History Graph

Search for Another Location

Airport:

Trip Planner

Search our weather history database for the weather conditions in past years. The results will help you decide how hot, cold, wet, or windy it might be!

Date:

Astronomy

Feb. 17, 2012 Rise Set
Actual Time 7:14 AM EST 5:56 PM EST
Civil Twilight 6:45 AM EST 6:24 PM EST
Nautical Twilight 6:13 AM EST 6:57 PM EST
Astronomical Twilight 5:41 AM EST 7:29 PM EST
Moon 4:06 AM EST (2/17) 1:45 PM EST (2/17)
Length of Visible Light 11h 38m
Length of Day
10h 42m
Waning Crescent, 19% of the Moon is Illuminated
Feb 17
Waning Crescent
Feb 21
New
Feb 29
First Quarter
Mar 8
Full
Mar 14
Last Quarter

Hourly Weather History & Observations

Time (EST) Temp. Windchill Dew Point Humidity Pressure Visibility Wind Dir Wind Speed Gust Speed Precip Events Conditions
12:03 AM 35.6 °F 28.6 °F 33.8 °F 93% 30.02 in 8.0 mi West 9.2 mph - N/A   Overcast
12:37 AM 35.6 °F 28.6 °F 32.0 °F 87% 30.03 in 7.0 mi West 9.2 mph - N/A   Overcast
12:53 AM 35.1 °F 28.6 °F 32.0 °F 89% 30.07 in 8.0 mi West 8.1 mph - N/A   Overcast
1:53 AM 34.0 °F 28.0 °F 30.0 °F 85% 30.07 in 7.0 mi West 6.9 mph - N/A   Mostly Cloudy
2:53 AM 32.0 °F - 28.0 °F 85% 30.07 in 7.0 mi Calm Calm - N/A   Clear
3:53 AM 30.9 °F 26.2 °F 28.0 °F 89% 30.08 in 6.0 mi WSW 4.6 mph - N/A   Clear
4:53 AM 30.0 °F 25.2 °F 27.0 °F 88% 30.10 in 5.0 mi SW 4.6 mph - N/A   Clear
5:53 AM 28.9 °F 22.8 °F 26.1 °F 89% 30.10 in 4.0 mi SSW 5.8 mph - N/A   Clear
6:53 AM 28.0 °F 21.7 °F 26.1 °F 92% 30.10 in 4.0 mi SSW 5.8 mph - N/A   Clear
7:32 AM 28.4 °F 23.3 °F 26.6 °F 93% 30.06 in 2.5 mi South 4.6 mph - N/A   Scattered Clouds
7:45 AM 28.4 °F 23.3 °F 26.6 °F 93% 30.06 in 3.0 mi South 4.6 mph - N/A   Mostly Cloudy
7:53 AM 28.9 °F 22.8 °F 27.0 °F 92% 30.11 in 3.0 mi South 5.8 mph - N/A   Mostly Cloudy
8:53 AM 30.9 °F 25.2 °F 27.0 °F 85% 30.11 in 4.0 mi SSW 5.8 mph - N/A   Scattered Clouds
9:53 AM 34.0 °F 27.2 °F 26.1 °F 73% 30.10 in 9.0 mi SSW 8.1 mph - N/A   Overcast
10:53 AM 36.0 °F 30.3 °F 25.0 °F 64% 30.09 in 10.0 mi WSW 6.9 mph - N/A   Overcast
11:53 AM 37.9 °F 30.0 °F 27.0 °F 65% 30.09 in 10.0 mi West 12.7 mph - N/A   Mostly Cloudy
12:53 PM 37.0 °F 27.4 °F 26.1 °F 65% 30.09 in 10.0 mi West 17.3 mph 23.0 mph N/A   Overcast
1:53 PM 37.0 °F 28.5 °F 26.1 °F 65% 30.08 in 10.0 mi West 13.8 mph 26.5 mph N/A   Scattered Clouds
2:53 PM 37.9 °F 29.6 °F 24.1 °F 57% 30.10 in 10.0 mi WNW 13.8 mph 24.2 mph N/A   Mostly Cloudy
3:53 PM 37.0 °F 29.3 °F 21.9 °F 54% 30.11 in 10.0 mi WNW 11.5 mph - N/A   Mostly Cloudy
4:53 PM 36.0 °F 28.0 °F 19.9 °F 52% 30.12 in 10.0 mi West 11.5 mph 16.1 mph N/A   Partly Cloudy
5:53 PM 34.0 °F 28.8 °F 19.9 °F 56% 30.14 in 10.0 mi West 5.8 mph - N/A   Clear
6:53 PM 32.0 °F 28.7 °F 19.9 °F 61% 30.14 in 10.0 mi West 3.5 mph - N/A   Clear
7:53 PM 30.9 °F - 19.9 °F 64% 30.13 in 10.0 mi Calm Calm - N/A   Clear
8:53 PM 30.9 °F - 19.0 °F 61% 30.13 in 10.0 mi Calm Calm - N/A   Clear
9:53 PM 32.0 °F 28.7 °F 19.9 °F 61% 30.12 in 10.0 mi SW 3.5 mph - N/A   Overcast
10:53 PM 30.9 °F 26.2 °F 21.0 °F 67% 30.10 in 10.0 mi South 4.6 mph - N/A   Overcast
11:53 PM 30.9 °F - 21.9 °F 69% 30.09 in 10.0 mi Calm Calm - N/A   Overcast